Location: Newark
(49.1939°N, 0.8136°E)
Time: 18:05:47
(UTC+00:00)

Envisat - Pass Details

Date: 24 November 2019
Orbit: 764 x 766 km, 98.1° (Epoch: 08 December)

Event Time Altitude Azimuth Distance (km) Brightness Sun altitude
Rises 06:12:12 0° 20° (NNE) 3,243 6.3 -10.8°
Reaches altitude 10° 06:14:42 10° 29° (NNE) 2,312 5.6 -10.5°
Maximum altitude 06:19:23 36° 96° (E) 1,199 4.8 -9.7°
Drops below altitude 10° 06:24:02 10° 163° (SSE) 2,296 6.0 -9.0°
Sets 06:26:30 0° 171° (S) 3,217 6.7 -8.6°
